Time,TemperatureF,DewpointF,PressureIn,WindDirection,WindDirectionDegrees,WindSpeedMPH,WindSpeedGustMPH,Humidity,HourlyPrecipIn,Conditions,Clouds,dailyrainin,SoftwareType,DateUTC
2013-03-16 00:00:00,54.0,41.3,29.62,NNW,334,9.0,13.0,62,0.00,CLR,,0.00,WeatherDisplay:10.37,2013-03-16 05:00:00,
2013-03-16 00:10:00,53.1,41.6,29.62,NNW,336,9.0,15.0,65,0.00,CLR,,0.00,WeatherDisplay:10.37,2013-03-16 05:10:00,
2013-03-16 00:15:00,52.8,41.7,29.62,NNW,340,9.0,12.0,66,0.00,CLR,,0.00,WeatherDisplay:10.37,2013-03-16 05:15:00,
2013-03-16 00:20:00,52.6,41.6,29.62,NNW,342,7.0,10.0,66,0.00,CLR,,0.00,WeatherDisplay:10.37,2013-03-16 05:20:00,
2013-03-16 00:25:00,52.3,41.6,29.63,NNW,341,8.0,10.0,67,0.00,CLR,,0.00,WeatherDisplay:10.37,2013-03-16 05:25:00,
2013-03-16 00:30:00,52.1,41.5,29.63,NNW,340,10.0,13.0,67,0.00,CLR,,0.00,WeatherDisplay:10.37,2013-03-16 05:30:00,
2013-03-16 00:40:00,51.3,41.5,29.64,NNW,341,10.0,15.0,69,0.00,CLR,,0.00,WeatherDisplay:10.37,2013-03-16 05:40:00,
2013-03-16 00:45:00,50.9,41.5,29.64,NNW,339,8.0,16.0,70,0.00,CLR,,0.00,WeatherDisplay:10.37,2013-03-16 05:45:00,
2013-03-16 00:50:00,50.4,41.4,29.64,NNW,339,8.0,14.0,71,0.00,CLR,,0.00,WeatherDisplay:10.37,2013-03-16 05:50:00,
2013-03-16 01:00:00,49.9,41.6,29.65,NNW,339,15.0,20.0,73,0.00,CLR,,0.00,WeatherDisplay:10.37,2013-03-16 06:00:00,
2013-03-16 01:10:00,49.2,41.2,29.66,NNW,342,14.0,20.0,74,0.00,CLR,,0.00,WeatherDisplay:10.37,2013-03-16 06:10:00,
2013-03-16 01:15:00,48.7,41.1,29.66,NNW,343,10.0,20.0,75,0.00,CLR,,0.00,WeatherDisplay:10.37,2013-03-16 06:15:00,
2013-03-16 01:20:00,48.0,40.8,29.66,NNW,340,10.0,15.0,76,0.00,CLR,,0.00,WeatherDisplay:10.37,2013-03-16 06:20:00,
2013-03-16 01:25:00,47.6,40.7,29.66,NNW,337,14.0,17.0,77,0.00,CLR,,0.00,WeatherDisplay:10.37,2013-03-16 06:25:00,
2013-03-16 01:30:00,47.1,40.6,29.66,NNW,339,13.0,20.0,78,0.00,CLR,,0.00,WeatherDisplay:10.37,2013-03-16 06:30:00,
2013-03-16 01:40:00,47.0,40.1,29.66,NNW,340,12.0,20.0,77,0.00,CLR,,0.00,WeatherDisplay:10.37,2013-03-16 06:40:00,
2013-03-16 01:50:00,46.4,39.6,29.67,NNW,339,12.0,16.0,77,0.00,CLR,,0.00,WeatherDisplay:10.37,2013-03-16 06:50:00,
2013-03-16 01:55:00,46.1,39.6,29.67,NNW,343,9.0,16.0,78,0.00,CLR,,0.00,WeatherDisplay:10.37,2013-03-16 06:55:00,
2013-03-16 02:00:00,45.8,39.3,29.68,NNW,347,9.0,13.0,78,0.00,CLR,,0.00,WeatherDisplay:10.37,2013-03-16 07:00:00,
2013-03-16 02:10:00,45.6,38.8,29.68,North,349,12.0,15.0,77,0.00,CLR,,0.00,WeatherDisplay:10.37,2013-03-16 07:10:00,
2013-03-16 02:15:00,45.5,38.7,29.68,NNW,345,12.0,20.0,77,0.00,CLR,,0.00,WeatherDisplay:10.37,2013-03-16 07:15:00,
2013-03-16 02:20:00,45.0,38.3,29.69,NNW,342,12.0,20.0,77,0.00,CLR,,0.00,WeatherDisplay:10.37,2013-03-16 07:20:00,
2013-03-16 02:25:00,44.9,38.1,29.69,NNW,341,9.0,20.0,77,0.00,CLR,,0.00,WeatherDisplay:10.37,2013-03-16 07:25:00,
2013-03-16 02:30:00,44.4,38.0,29.69,NNW,344,12.0,17.0,78,0.00,CLR,,0.00,WeatherDisplay:10.37,2013-03-16 07:30:00,
2013-03-16 02:35:00,44.1,38.0,29.69,NNW,348,10.0,18.0,79,0.00,CLR,,0.00,WeatherDisplay:10.37,2013-03-16 07:35:00,
2013-03-16 02:40:00,44.0,38.2,29.69,NNW,345,8.0,20.0,80,0.00,CLR,,0.00,WeatherDisplay:10.37,2013-03-16 07:40:00,
2013-03-16 02:45:00,43.6,38.2,29.69,NNW,344,10.0,17.0,81,0.00,CLR,,0.00,WeatherDisplay:10.37,2013-03-16 07:45:00,
2013-03-16 02:50:00,43.3,37.9,29.69,NNW,342,9.0,16.0,81,0.00,CLR,,0.00,WeatherDisplay:10.37,2013-03-16 07:50:00,
2013-03-16 02:55:00,42.9,37.5,29.69,NNW,338,12.0,16.0,81,0.00,CLR,,0.00,WeatherDisplay:10.37,2013-03-16 07:55:00,
2013-03-16 03:00:00,42.6,37.2,29.69,NNW,339,12.0,17.0,81,0.00,CLR,,0.00,WeatherDisplay:10.37,2013-03-16 08:00:00,
2013-03-16 03:10:00,42.3,36.9,29.69,NNW,339,12.0,16.0,81,0.00,CLR,,0.00,WeatherDisplay:10.37,2013-03-16 08:10:00,
2013-03-16 03:15:00,42.0,36.6,29.69,NNW,338,10.0,17.0,81,0.00,CLR,,0.00,WeatherDisplay:10.37,2013-03-16 08:15:00,
2013-03-16 03:20:00,41.7,36.6,29.70,NNW,338,10.0,13.0,82,0.00,CLR,,0.00,WeatherDisplay:10.37,2013-03-16 08:20:00,
2013-03-16 03:30:00,41.6,36.5,29.70,NNW,341,10.0,17.0,82,0.00,CLR,,0.00,WeatherDisplay:10.37,2013-03-16 08:30:00,
2013-03-16 03:40:00,41.1,36.3,29.70,NNW,338,10.0,16.0,83,0.00,CLR,,0.00,WeatherDisplay:10.37,2013-03-16 08:40:00,
2013-03-16 03:45:00,40.9,36.4,29.70,NNW,340,14.0,20.0,84,0.00,CLR,,0.00,WeatherDisplay:10.37,2013-03-16 08:45:00,
2013-03-16 03:55:00,40.2,35.7,29.71,NNW,338,12.0,18.0,84,0.00,CLR,,0.00,WeatherDisplay:10.37,2013-03-16 08:55:00,
2013-03-16 04:00:00,39.6,35.5,29.71,NNW,338,14.0,18.0,85,0.00,CLR,,0.00,WeatherDisplay:10.37,2013-03-16 09:00:00,
2013-03-16 04:10:00,39.0,34.9,29.73,NNW,338,17.0,21.0,85,0.00,CLR,,0.00,WeatherDisplay:10.37,2013-03-16 09:10:00,
2013-03-16 04:15:00,38.7,34.9,29.73,NNW,339,13.0,22.0,86,0.00,CLR,,0.00,WeatherDisplay:10.37,2013-03-16 09:15:00,
2013-03-16 04:20:00,38.5,34.7,29.73,NNW,340,10.0,15.0,86,0.00,CLR,,0.00,WeatherDisplay:10.37,2013-03-16 09:20:00,
2013-03-16 04:30:00,38.4,34.9,29.74,NNW,344,15.0,20.0,87,0.00,CLR,,0.00,WeatherDisplay:10.37,2013-03-16 09:30:00,
2013-03-16 04:40:00,38.3,34.8,29.75,NNW,342,14.0,20.0,87,0.00,CLR,,0.00,WeatherDisplay:10.37,2013-03-16 09:40:00,
2013-03-16 04:45:00,38.1,34.6,29.75,NNW,344,14.0,21.0,87,0.00,CLR,,0.00,WeatherDisplay:10.37,2013-03-16 09:45:00,
2013-03-16 04:50:00,37.9,34.4,29.75,NNW,345,17.0,29.0,87,0.00,CLR,,0.00,WeatherDisplay:10.37,2013-03-16 09:50:00,
2013-03-16 04:55:00,37.7,34.2,29.75,NNW,345,16.0,28.0,87,0.00,CLR,,0.00,WeatherDisplay:10.37,2013-03-16 09:55:00,
2013-03-16 05:00:00,37.7,34.5,29.76,NNW,343,18.0,24.0,88,0.00,CLR,,0.00,WeatherDisplay:10.37,2013-03-16 10:00:00,
2013-03-16 05:05:00,37.7,34.5,29.76,NNW,341,17.0,27.0,88,0.00,BKN,,0.00,WeatherDisplay:10.37,2013-03-16 10:05:00,
2013-03-16 05:10:00,37.8,34.3,29.77,NNW,342,18.0,25.0,87,0.00,BKN,,0.00,WeatherDisplay:10.37,2013-03-16 10:10:00,
2013-03-16 05:15:00,37.7,34.2,29.77,NNW,341,16.0,25.0,87,0.00,BKN,,0.00,WeatherDisplay:10.37,2013-03-16 10:15:00,
2013-03-16 05:25:00,37.8,34.3,29.78,NNW,340,16.0,21.0,87,0.00,BKN,,0.00,WeatherDisplay:10.37,2013-03-16 10:25:00,
2013-03-16 05:30:00,37.9,34.1,29.78,NNW,344,20.0,28.0,86,0.00,BKN,,0.00,WeatherDisplay:10.37,2013-03-16 10:30:00,
2013-03-16 05:40:00,37.8,33.7,29.79,NNW,340,16.0,21.0,85,0.00,BKN,,0.00,WeatherDisplay:10.37,2013-03-16 10:40:00,
2013-03-16 05:45:00,37.8,34.0,29.79,NNW,343,15.0,24.0,86,0.00,BKN,,0.00,WeatherDisplay:10.37,2013-03-16 10:45:00,
2013-03-16 05:55:00,37.8,33.7,29.79,NNW,344,14.0,21.0,85,0.00,BKN,,0.00,WeatherDisplay:10.37,2013-03-16 10:55:00,
2013-03-16 06:00:00,37.9,33.8,29.80,North,349,15.0,25.0,85,0.00,BKN,,0.00,WeatherDisplay:10.37,2013-03-16 11:00:00,
2013-03-16 06:10:00,37.9,33.8,29.80,NNW,346,13.0,23.0,85,0.00,OVC,,0.00,WeatherDisplay:10.37,2013-03-16 11:10:00,
2013-03-16 06:15:00,37.9,33.8,29.81,North,350,12.0,20.0,85,0.00,OVC,,0.00,WeatherDisplay:10.37,2013-03-16 11:15:00,
2013-03-16 06:20:00,38.0,33.9,29.81,North,350,16.0,23.0,85,0.00,OVC,,0.00,WeatherDisplay:10.37,2013-03-16 11:20:00,
2013-03-16 06:25:00,38.0,33.9,29.82,North,350,12.0,26.0,85,0.00,OVC,,0.00,WeatherDisplay:10.37,2013-03-16 11:25:00,
2013-03-16 06:30:00,38.0,33.9,29.83,North,349,14.0,20.0,85,0.00,OVC,,0.00,WeatherDisplay:10.37,2013-03-16 11:30:00,
2013-03-16 06:40:00,38.1,34.0,29.83,North,354,15.0,21.0,85,0.00,OVC,,0.00,WeatherDisplay:10.37,2013-03-16 11:40:00,
2013-03-16 06:45:00,38.1,34.0,29.83,North,354,15.0,21.0,85,0.00,OVC,,0.00,WeatherDisplay:10.37,2013-03-16 11:45:00,
2013-03-16 06:50:00,38.1,34.0,29.84,North,349,13.0,21.0,85,0.00,OVC,,0.00,WeatherDisplay:10.37,2013-03-16 11:50:00,
2013-03-16 06:55:00,38.1,34.0,29.84,North,353,14.0,22.0,85,0.00,OVC,,0.00,WeatherDisplay:10.37,2013-03-16 11:55:00,
2013-03-16 07:00:00,38.1,34.0,29.84,North,352,10.0,17.0,85,0.00,OVC,,0.00,WeatherDisplay:10.37,2013-03-16 12:00:00,
2013-03-16 07:10:00,38.2,33.8,29.84,North,353,14.0,20.0,84,0.00,OVC,,0.00,WeatherDisplay:10.37,2013-03-16 12:10:00,
2013-03-16 07:15:00,38.2,33.8,29.84,NNW,348,12.0,17.0,84,0.00,OVC,,0.00,WeatherDisplay:10.37,2013-03-16 12:15:00,
2013-03-16 07:20:00,38.1,33.7,29.84,North,351,10.0,17.0,84,0.00,OVC,,0.00,WeatherDisplay:10.37,2013-03-16 12:20:00,
2013-03-16 07:25:00,38.0,33.6,29.84,North,352,14.0,22.0,84,0.00,OVC,,0.00,WeatherDisplay:10.37,2013-03-16 12:25:00,
2013-03-16 07:30:00,38.0,33.6,29.84,North,355,14.0,18.0,84,0.00,OVC,,0.00,WeatherDisplay:10.37,2013-03-16 12:30:00,
2013-03-16 07:40:00,37.9,33.5,29.84,North,355,12.0,18.0,84,0.00,OVC,,0.00,WeatherDisplay:10.37,2013-03-16 12:40:00,
2013-03-16 07:45:00,37.9,33.5,29.84,North,358,13.0,18.0,84,0.00,OVC,,0.00,WeatherDisplay:10.37,2013-03-16 12:45:00,
2013-03-16 07:50:00,37.8,33.1,29.84,North,358,16.0,26.0,83,0.00,OVC,,0.00,WeatherDisplay:10.37,2013-03-16 12:50:00,
2013-03-16 07:55:00,37.5,32.8,29.84,North,3,14.0,26.0,83,0.00,OVC,,0.00,WeatherDisplay:10.37,2013-03-16 12:55:00,
2013-03-16 08:00:00,37.4,32.7,29.84,North,357,14.0,23.0,83,0.00,OVC,,0.00,WeatherDisplay:10.37,2013-03-16 13:00:00,
2013-03-16 08:10:00,37.3,32.6,29.84,North,359,13.0,18.0,83,0.00,OVC,,0.00,WeatherDisplay:10.37,2013-03-16 13:10:00,
2013-03-16 08:15:00,37.3,32.6,29.85,North,3,13.0,16.0,83,0.00,OVC,,0.00,WeatherDisplay:10.37,2013-03-16 13:15:00,
2013-03-16 08:20:00,37.4,32.7,29.86,North,352,12.0,16.0,83,0.00,OVC,,0.00,WeatherDisplay:10.37,2013-03-16 13:20:00,
2013-03-16 08:30:00,37.4,32.7,29.86,North,355,13.0,20.0,83,0.00,OVC,,0.00,WeatherDisplay:10.37,2013-03-16 13:30:00,
2013-03-16 08:35:00,37.4,32.7,29.87,North,353,13.0,18.0,83,0.00,OVC,,0.00,WeatherDisplay:10.37,2013-03-16 13:35:00,
2013-03-16 08:45:00,37.3,32.6,29.87,North,356,10.0,17.0,83,0.00,OVC,,0.00,WeatherDisplay:10.37,2013-03-16 13:45:00,
2013-03-16 08:55:00,37.1,32.4,29.88,North,2,12.0,17.0,83,0.00,OVC,,0.00,WeatherDisplay:10.37,2013-03-16 13:55:00,
2013-03-16 09:00:00,36.9,32.2,29.88,North,9,13.0,18.0,83,0.00,OVC,,0.00,WeatherDisplay:10.37,2013-03-16 14:00:00,
2013-03-16 09:10:00,36.8,32.4,29.88,North,5,12.0,16.0,84,0.00,OVC,,0.00,WeatherDisplay:10.37,2013-03-16 14:10:00,
2013-03-16 09:15:00,36.7,32.3,29.88,North,9,12.0,17.0,84,0.00,OVC,,0.00,WeatherDisplay:10.37,2013-03-16 14:15:00,
2013-03-16 09:25:00,36.7,32.3,29.90,North,359,10.0,18.0,84,0.00,OVC,,0.00,WeatherDisplay:10.37,2013-03-16 14:25:00,
2013-03-16 09:30:00,36.7,32.1,29.90,North,358,13.0,18.0,83,0.00,OVC,,0.00,WeatherDisplay:10.37,2013-03-16 14:30:00,
2013-03-16 09:35:00,36.8,32.1,29.89,North,360,12.0,16.0,83,0.00,OVC,,0.00,WeatherDisplay:10.37,2013-03-16 14:35:00,
2013-03-16 09:45:00,37.1,31.8,29.91,North,359,9.0,17.0,81,0.00,OVC,,0.00,WeatherDisplay:10.37,2013-03-16 14:45:00,
2013-03-16 09:50:00,37.1,31.8,29.91,North,7,10.0,15.0,81,0.00,OVC,,0.00,WeatherDisplay:10.37,2013-03-16 14:50:00,
2013-03-16 09:55:00,37.0,31.7,29.91,North,9,10.0,15.0,81,0.00,OVC,,0.00,WeatherDisplay:10.37,2013-03-16 14:55:00,
2013-03-16 10:00:00,37.0,31.7,29.92,North,11,9.0,13.0,81,0.00,OVC,,0.00,WeatherDisplay:10.37,2013-03-16 15:00:00,
2013-03-16 10:10:00,37.3,31.7,29.92,North,349,10.0,17.0,80,0.00,OVC,,0.00,WeatherDisplay:10.37,2013-03-16 15:10:00,
2013-03-16 10:15:00,37.4,31.4,29.92,North,4,14.0,21.0,79,0.00,OVC,,0.00,WeatherDisplay:10.37,2013-03-16 15:15:00,
2013-03-16 10:25:00,37.4,31.5,29.92,NNE,19,10.0,17.0,79,0.00,OVC,,0.00,WeatherDisplay:10.37,2013-03-16 15:25:00,
2013-03-16 10:30:00,37.3,31.3,29.92,North,9,14.0,20.0,79,0.00,OVC,,0.00,WeatherDisplay:10.37,2013-03-16 15:30:00,
2013-03-16 10:40:00,37.0,31.1,29.92,North,3,12.0,17.0,79,0.00,OVC,,0.00,WeatherDisplay:10.37,2013-03-16 15:40:00,
2013-03-16 10:45:00,37.0,31.1,29.93,North,4,12.0,15.0,79,0.00,OVC,,0.00,WeatherDisplay:10.37,2013-03-16 15:45:00,
2013-03-16 10:50:00,37.3,31.3,29.92,North,9,10.0,16.0,79,0.00,OVC,,0.00,WeatherDisplay:10.37,2013-03-16 15:50:00,
2013-03-16 10:55:00,37.2,31.3,29.92,NNE,17,13.0,16.0,79,0.00,OVC,,0.00,WeatherDisplay:10.37,2013-03-16 15:55:00,
2013-03-16 11:00:00,37.0,31.1,29.92,NNE,17,10.0,17.0,79,0.00,OVC,,0.00,WeatherDisplay:10.37,2013-03-16 16:00:00,
2013-03-16 11:05:00,37.4,31.5,29.92,North,5,10.0,20.0,79,0.00,OVC,,0.00,WeatherDisplay:10.37,2013-03-16 16:05:00,
2013-03-16 11:15:00,37.4,31.2,29.93,North,357,12.0,20.0,78,0.00,OVC,,0.00,WeatherDisplay:10.37,2013-03-16 16:15:00,
2013-03-16 11:20:00,37.6,31.4,29.93,North,354,12.0,20.0,78,0.00,OVC,,0.00,WeatherDisplay:10.37,2013-03-16 16:20:00,
2013-03-16 11:25:00,37.6,31.3,29.94,North,358,12.0,16.0,78,0.00,OVC,,0.00,WeatherDisplay:10.37,2013-03-16 16:25:00,
2013-03-16 11:30:00,37.5,31.2,29.93,North,7,9.0,15.0,78,0.00,OVC,,0.00,WeatherDisplay:10.37,2013-03-16 16:30:00,
2013-03-16 11:40:00,38.3,31.7,29.92,NNE,31,12.0,15.0,77,0.00,OVC,,0.00,WeatherDisplay:10.37,2013-03-16 16:40:00,
2013-03-16 11:45:00,38.5,32.0,29.92,NNE,28,10.0,16.0,77,0.00,OVC,,0.00,WeatherDisplay:10.37,2013-03-16 16:45:00,
2013-03-16 11:50:00,38.7,31.8,29.94,NNE,28,10.0,14.0,76,0.00,OVC,,0.00,WeatherDisplay:10.37,2013-03-16 16:50:00,
2013-03-16 11:55:00,38.3,31.3,29.94,NNE,21,8.0,12.0,76,0.00,OVC,,0.00,WeatherDisplay:10.37,2013-03-16 16:55:00,
2013-03-16 12:00:00,38.2,31.3,29.94,North,2,9.0,12.0,76,0.00,OVC,,0.00,WeatherDisplay:10.37,2013-03-16 17:00:00,
2013-03-16 12:10:00,37.8,31.2,29.95,North,2,9.0,14.0,77,0.00,OVC,,0.00,WeatherDisplay:10.37,2013-03-16 17:10:00,
2013-03-16 12:15:00,37.7,31.2,29.96,North,4,8.0,12.0,77,0.00,OVC,,0.00,WeatherDisplay:10.37,2013-03-16 17:15:00,
2013-03-16 12:20:00,37.7,31.1,29.95,NNE,18,8.0,12.0,77,0.00,OVC,,0.00,WeatherDisplay:10.37,2013-03-16 17:20:00,
2013-03-16 12:30:00,38.0,31.7,29.94,North,355,7.0,12.0,78,0.00,OVC,,0.00,WeatherDisplay:10.37,2013-03-16 17:30:00,
2013-03-16 12:40:00,37.8,31.2,29.95,NNE,21,8.0,12.0,77,0.00,OVC,,0.00,WeatherDisplay:10.37,2013-03-16 17:40:00,
2013-03-16 12:45:00,37.8,31.2,29.95,North,10,9.0,14.0,77,0.00,OVC,,0.00,WeatherDisplay:10.37,2013-03-16 17:45:00,
2013-03-16 12:50:00,37.8,30.9,29.95,NNE,12,12.0,16.0,76,0.00,OVC,,0.00,WeatherDisplay:10.37,2013-03-16 17:50:00,
2013-03-16 12:55:00,37.9,31.0,29.95,NNE,19,9.0,13.0,76,0.00,OVC,,0.00,WeatherDisplay:10.37,2013-03-16 17:55:00,
2013-03-16 13:00:00,37.8,31.2,29.95,North,10,12.0,17.0,77,0.00,OVC,,0.00,WeatherDisplay:10.37,2013-03-16 18:00:00,
2013-03-16 13:10:00,37.7,30.8,29.95,North,5,10.0,17.0,76,0.00,BKN,,0.00,WeatherDisplay:10.37,2013-03-16 18:10:00,
2013-03-16 13:15:00,38.0,30.8,29.95,North,5,12.0,18.0,75,0.00,BKN,,0.00,WeatherDisplay:10.37,2013-03-16 18:15:00,
2013-03-16 13:20:00,38.8,31.5,29.95,North,357,10.0,15.0,75,0.00,BKN,,0.00,WeatherDisplay:10.37,2013-03-16 18:20:00,
2013-03-16 13:25:00,38.7,30.7,29.95,NNE,15,14.0,20.0,73,0.00,BKN,,0.00,WeatherDisplay:10.37,2013-03-16 18:25:00,
2013-03-16 13:30:00,38.4,30.2,29.95,NNE,24,13.0,20.0,72,0.00,BKN,,0.00,WeatherDisplay:10.37,2013-03-16 18:30:00,
2013-03-16 13:40:00,39.1,30.8,29.95,NNE,15,9.0,12.0,72,0.00,BKN,,0.00,WeatherDisplay:10.37,2013-03-16 18:40:00,
2013-03-16 13:45:00,38.8,30.5,29.95,NNE,26,10.0,14.0,72,0.00,BKN,,0.00,WeatherDisplay:10.37,2013-03-16 18:45:00,
2013-03-16 13:55:00,40.0,31.3,29.94,NNE,26,12.0,17.0,71,0.00,BKN,,0.00,WeatherDisplay:10.37,2013-03-16 18:55:00,
2013-03-16 14:00:00,39.9,30.9,29.95,NNE,23,8.0,15.0,70,0.00,BKN,,0.00,WeatherDisplay:10.37,2013-03-16 19:00:00,
2013-03-16 14:10:00,40.2,30.9,29.94,North,357,10.0,15.0,69,0.00,OVC,,0.00,WeatherDisplay:10.37,2013-03-16 19:10:00,
2013-03-16 14:20:00,41.0,30.5,29.94,North,4,9.0,17.0,66,0.00,OVC,,0.00,WeatherDisplay:10.37,2013-03-16 19:20:00,
2013-03-16 14:30:00,41.2,30.7,29.94,North,3,10.0,16.0,66,0.00,OVC,,0.00,WeatherDisplay:10.37,2013-03-16 19:30:00,
2013-03-16 14:40:00,42.0,30.7,29.93,NNE,24,13.0,18.0,64,0.00,OVC,,0.00,WeatherDisplay:10.37,2013-03-16 19:40:00,
2013-03-16 14:50:00,41.6,29.9,29.91,NNE,24,14.0,22.0,63,0.00,OVC,,0.00,WeatherDisplay:10.37,2013-03-16 19:50:00,
2013-03-16 14:55:00,41.8,30.5,29.92,NNE,12,10.0,16.0,64,0.00,OVC,,0.00,WeatherDisplay:10.37,2013-03-16 19:55:00,
2013-03-16 15:00:00,41.8,30.5,29.92,North,6,13.0,18.0,64,0.00,OVC,,0.00,WeatherDisplay:10.37,2013-03-16 20:00:00,
2013-03-16 15:05:00,41.3,29.7,29.92,NNE,19,14.0,20.0,63,0.00,BKN,,0.00,WeatherDisplay:10.37,2013-03-16 20:05:00,
2013-03-16 15:10:00,41.5,30.2,29.91,NNE,23,12.0,18.0,64,0.00,BKN,,0.00,WeatherDisplay:10.37,2013-03-16 20:10:00,
2013-03-16 15:15:00,41.5,30.2,29.91,NNE,20,12.0,16.0,64,0.00,BKN,,0.00,WeatherDisplay:10.37,2013-03-16 20:15:00,
2013-03-16 15:20:00,41.5,30.3,29.91,NNE,17,10.0,17.0,64,0.00,BKN,,0.00,WeatherDisplay:10.37,2013-03-16 20:20:00,
2013-03-16 15:25:00,41.7,30.4,29.91,NNE,13,9.0,17.0,64,0.00,BKN,,0.00,WeatherDisplay:10.37,2013-03-16 20:25:00,
2013-03-16 15:30:00,41.7,30.0,29.91,North,10,12.0,17.0,63,0.00,BKN,,0.00,WeatherDisplay:10.37,2013-03-16 20:30:00,
2013-03-16 15:40:00,42.2,30.1,29.92,NNE,14,10.0,18.0,62,0.00,BKN,,0.00,WeatherDisplay:10.37,2013-03-16 20:40:00,
2013-03-16 15:45:00,41.6,30.3,29.91,NNE,23,12.0,17.0,64,0.00,BKN,,0.00,WeatherDisplay:10.37,2013-03-16 20:45:00,
2013-03-16 15:50:00,41.1,29.8,29.92,NNE,23,10.0,20.0,64,0.00,BKN,,0.00,WeatherDisplay:10.37,2013-03-16 20:50:00,
2013-03-16 15:55:00,41.5,30.6,29.92,NNE,18,12.0,18.0,65,0.00,BKN,,0.00,WeatherDisplay:10.37,2013-03-16 20:55:00,
2013-03-16 16:00:00,41.3,30.1,29.93,NNE,15,12.0,15.0,64,0.00,BKN,,0.00,WeatherDisplay:10.37,2013-03-16 21:00:00,
2013-03-16 16:10:00,41.2,30.7,29.93,NNE,18,10.0,15.0,66,0.00,BKN,,0.00,WeatherDisplay:10.37,2013-03-16 21:10:00,
2013-03-16 16:15:00,41.0,30.2,29.93,NNE,31,10.0,18.0,65,0.00,BKN,,0.00,WeatherDisplay:10.37,2013-03-16 21:15:00,
2013-03-16 16:20:00,40.2,29.4,29.94,NE,38,12.0,17.0,65,0.00,BKN,,0.00,WeatherDisplay:10.37,2013-03-16 21:20:00,
2013-03-16 16:25:00,40.4,29.9,29.94,NNE,27,9.0,13.0,66,0.00,BKN,,0.00,WeatherDisplay:10.37,2013-03-16 21:25:00,
2013-03-16 16:30:00,40.3,29.9,29.94,NNE,12,12.0,18.0,66,0.00,BKN,,0.00,WeatherDisplay:10.37,2013-03-16 21:30:00,
2013-03-16 16:35:00,40.1,29.6,29.94,NNE,17,12.0,16.0,66,0.00,BKN,,0.00,WeatherDisplay:10.37,2013-03-16 21:35:00,
2013-03-16 16:40:00,39.9,29.8,29.93,NNE,18,8.0,15.0,67,0.00,BKN,,0.00,WeatherDisplay:10.37,2013-03-16 21:40:00,
2013-03-16 16:45:00,40.0,30.3,29.93,NNE,15,8.0,14.0,68,0.00,BKN,,0.00,WeatherDisplay:10.37,2013-03-16 21:45:00,
2013-03-16 16:50:00,39.9,29.8,29.94,NNE,21,10.0,14.0,67,0.00,BKN,,0.00,WeatherDisplay:10.37,2013-03-16 21:50:00,
2013-03-16 16:55:00,39.6,29.5,29.94,NNE,22,9.0,17.0,67,0.00,BKN,,0.00,WeatherDisplay:10.37,2013-03-16 21:55:00,
2013-03-16 17:00:00,39.4,29.4,29.94,NNE,25,9.0,13.0,67,0.00,BKN,,0.00,WeatherDisplay:10.37,2013-03-16 22:00:00,
2013-03-16 17:10:00,38.9,29.6,29.94,North,10,8.0,15.0,69,0.00,BKN,,0.00,WeatherDisplay:10.37,2013-03-16 22:10:00,
2013-03-16 17:15:00,38.9,29.2,29.95,North,6,9.0,13.0,68,0.00,BKN,,0.00,WeatherDisplay:10.37,2013-03-16 22:15:00,
2013-03-16 17:20:00,38.9,29.6,29.95,North,3,8.0,12.0,69,0.00,BKN,,0.00,WeatherDisplay:10.37,2013-03-16 22:20:00,
2013-03-16 17:25:00,38.8,29.1,29.95,NNE,15,8.0,15.0,68,0.00,BKN,,0.00,WeatherDisplay:10.37,2013-03-16 22:25:00,
2013-03-16 17:30:00,38.6,29.0,29.95,NNE,12,10.0,14.0,68,0.00,BKN,,0.00,WeatherDisplay:10.37,2013-03-16 22:30:00,
2013-03-16 17:40:00,38.4,29.1,29.95,North,7,7.0,12.0,69,0.00,BKN,,0.00,WeatherDisplay:10.37,2013-03-16 22:40:00,
2013-03-16 17:45:00,38.4,28.7,29.94,North,6,9.0,12.0,68,0.00,BKN,,0.00,WeatherDisplay:10.37,2013-03-16 22:45:00,
2013-03-16 17:50:00,38.3,28.7,29.94,North,11,8.0,12.0,68,0.00,BKN,,0.00,WeatherDisplay:10.37,2013-03-16 22:50:00,
2013-03-16 18:00:00,38.0,28.7,29.94,North,8,8.0,15.0,69,0.00,BKN,,0.00,WeatherDisplay:10.37,2013-03-16 23:00:00,
2013-03-16 18:10:00,37.9,27.9,29.94,North,6,12.0,15.0,67,0.00,BKN,,0.00,WeatherDisplay:10.37,2013-03-16 23:10:00,
2013-03-16 18:15:00,37.8,28.2,29.94,NNE,13,9.0,14.0,68,0.00,BKN,,0.00,WeatherDisplay:10.37,2013-03-16 23:15:00,
2013-03-16 18:20:00,37.7,27.7,29.94,North,9,8.0,16.0,67,0.00,BKN,,0.00,WeatherDisplay:10.37,2013-03-16 23:20:00,
2013-03-16 18:25:00,37.7,28.1,29.94,NNE,13,7.0,12.0,68,0.00,BKN,,0.00,WeatherDisplay:10.37,2013-03-16 23:25:00,
2013-03-16 18:30:00,37.7,27.7,29.95,North,11,9.0,15.0,67,0.00,BKN,,0.00,WeatherDisplay:10.37,2013-03-16 23:30:00,
2013-03-16 18:40:00,37.8,27.8,29.95,NNE,15,6.0,12.0,67,0.00,BKN,,0.00,WeatherDisplay:10.37,2013-03-16 23:40:00,
2013-03-16 18:45:00,37.8,27.4,29.95,NNE,21,10.0,15.0,66,0.00,BKN,,0.00,WeatherDisplay:10.37,2013-03-16 23:45:00,
2013-03-16 18:55:00,37.7,27.7,29.95,NE,34,10.0,16.0,67,0.00,BKN,,0.00,WeatherDisplay:10.37,2013-03-16 23:55:00,
2013-03-16 19:00:00,37.7,27.7,29.96,NE,39,8.0,13.0,67,0.00,BKN,,0.00,WeatherDisplay:10.37,2013-03-17 00:00:00,
2013-03-16 19:10:00,37.5,27.2,29.96,NE,35,9.0,16.0,66,0.00,OVC,,0.00,WeatherDisplay:10.37,2013-03-17 00:10:00,
2013-03-16 19:15:00,37.4,27.4,29.96,NNE,32,8.0,14.0,67,0.00,OVC,,0.00,WeatherDisplay:10.37,2013-03-17 00:15:00,
2013-03-16 19:25:00,37.3,27.0,29.96,NE,34,10.0,15.0,66,0.00,OVC,,0.00,WeatherDisplay:10.37,2013-03-17 00:25:00,
2013-03-16 19:30:00,37.3,27.3,29.96,NE,34,9.0,15.0,67,0.00,OVC,,0.00,WeatherDisplay:10.37,2013-03-17 00:30:00,
2013-03-16 19:40:00,37.2,27.2,29.96,NE,38,8.0,13.0,67,0.00,OVC,,0.00,WeatherDisplay:10.37,2013-03-17 00:40:00,
2013-03-16 19:45:00,37.2,27.2,29.96,NNE,33,12.0,15.0,67,0.00,OVC,,0.00,WeatherDisplay:10.37,2013-03-17 00:45:00,
2013-03-16 19:50:00,37.1,27.2,29.96,NNE,27,9.0,15.0,67,0.00,OVC,,0.00,WeatherDisplay:10.37,2013-03-17 00:50:00,
2013-03-16 20:00:00,37.0,27.1,29.96,NNE,33,9.0,16.0,67,0.00,OVC,,0.00,WeatherDisplay:10.37,2013-03-17 01:00:00,
2013-03-16 20:10:00,36.9,27.0,29.96,NNE,29,10.0,20.0,67,0.00,OVC,,0.00,WeatherDisplay:10.37,2013-03-17 01:10:00,
2013-03-16 20:15:00,36.9,27.0,29.97,NNE,19,8.0,13.0,67,0.00,OVC,,0.00,WeatherDisplay:10.37,2013-03-17 01:15:00,
2013-03-16 20:20:00,36.8,26.9,29.98,NNE,17,6.0,12.0,67,0.00,OVC,,0.00,WeatherDisplay:10.37,2013-03-17 01:20:00,
2013-03-16 20:30:00,36.0,26.8,29.98,North,4,9.0,12.0,69,0.00,OVC,,0.00,WeatherDisplay:10.37,2013-03-17 01:30:00,
2013-03-16 20:40:00,35.6,26.4,30.00,North,6,8.0,12.0,69,0.00,OVC,,0.00,WeatherDisplay:10.37,2013-03-17 01:40:00,
2013-03-16 20:45:00,35.5,26.7,30.00,North,3,8.0,12.0,70,0.00,OVC,,0.00,WeatherDisplay:10.37,2013-03-17 01:45:00,
2013-03-16 20:50:00,35.4,26.5,30.00,North,0,9.0,13.0,70,0.00,OVC,,0.00,WeatherDisplay:10.37,2013-03-17 01:50:00,
2013-03-16 21:00:00,35.2,26.4,30.00,North,6,8.0,12.0,70,0.00,OVC,,0.00,WeatherDisplay:10.37,2013-03-17 02:00:00,
2013-03-16 21:10:00,34.9,26.1,30.00,NNE,13,9.0,14.0,70,0.00,OVC,,0.00,WeatherDisplay:10.37,2013-03-17 02:10:00,
2013-03-16 21:15:00,34.8,26.0,30.00,North,11,7.0,14.0,70,0.00,OVC,,0.00,WeatherDisplay:10.37,2013-03-17 02:15:00,
2013-03-16 21:20:00,34.8,26.4,30.00,NNE,15,9.0,13.0,71,0.00,OVC,,0.00,WeatherDisplay:10.37,2013-03-17 02:20:00,
2013-03-16 21:25:00,34.7,26.3,30.00,North,9,9.0,17.0,71,0.00,OVC,,0.00,WeatherDisplay:10.37,2013-03-17 02:25:00,
2013-03-16 21:30:00,34.7,26.3,30.00,North,7,9.0,14.0,71,0.00,OVC,,0.00,WeatherDisplay:10.37,2013-03-17 02:30:00,
2013-03-16 21:40:00,34.5,26.1,30.00,North,9,10.0,12.0,71,0.00,OVC,,0.00,WeatherDisplay:10.37,2013-03-17 02:40:00,
2013-03-16 21:45:00,34.4,26.0,30.00,North,6,8.0,17.0,71,0.00,OVC,,0.00,WeatherDisplay:10.37,2013-03-17 02:45:00,
2013-03-16 21:50:00,34.4,25.9,30.01,North,4,9.0,13.0,71,0.00,OVC,,0.00,WeatherDisplay:10.37,2013-03-17 02:50:00,
2013-03-16 22:00:00,34.3,25.9,30.01,North,5,8.0,13.0,71,0.00,OVC,,0.00,WeatherDisplay:10.37,2013-03-17 03:00:00,
2013-03-16 22:10:00,34.1,26.0,30.01,North,8,8.0,12.0,72,0.00,OVC,,0.00,WeatherDisplay:10.37,2013-03-17 03:10:00,
2013-03-16 22:15:00,33.9,25.8,30.01,North,9,10.0,15.0,72,0.00,OVC,,0.00,WeatherDisplay:10.37,2013-03-17 03:15:00,
2013-03-16 22:20:00,33.9,25.8,30.01,North,5,10.0,16.0,72,0.00,OVC,,0.00,WeatherDisplay:10.37,2013-03-17 03:20:00,
2013-03-16 22:30:00,33.7,26.0,30.01,North,5,10.0,15.0,73,0.00,OVC,,0.00,WeatherDisplay:10.37,2013-03-17 03:30:00,
2013-03-16 22:40:00,33.5,25.8,30.01,North,7,10.0,17.0,73,0.00,OVC,,0.00,WeatherDisplay:10.37,2013-03-17 03:40:00,
2013-03-16 22:45:00,33.4,26.0,30.01,North,5,12.0,16.0,74,0.00,OVC,,0.00,WeatherDisplay:10.37,2013-03-17 03:45:00,
2013-03-16 22:50:00,33.4,26.0,30.01,North,355,10.0,17.0,74,0.00,OVC,,0.00,WeatherDisplay:10.37,2013-03-17 03:50:00,
2013-03-16 23:00:00,33.4,26.0,30.01,North,357,10.0,14.0,74,0.00,OVC,,0.00,WeatherDisplay:10.37,2013-03-17 04:00:00,
2013-03-16 23:10:00,33.3,25.6,30.02,North,357,10.0,16.0,73,0.00,OVC,,0.00,WeatherDisplay:10.37,2013-03-17 04:10:00,
2013-03-16 23:15:00,33.3,25.9,30.02,North,360,9.0,13.0,74,0.00,OVC,,0.00,WeatherDisplay:10.37,2013-03-17 04:15:00,
2013-03-16 23:20:00,33.2,25.8,30.02,North,355,9.0,16.0,74,0.00,OVC,,0.00,WeatherDisplay:10.37,2013-03-17 04:20:00,
2013-03-16 23:25:00,33.1,25.7,30.01,North,356,12.0,17.0,74,0.00,OVC,,0.00,WeatherDisplay:10.37,2013-03-17 04:25:00,
2013-03-16 23:30:00,33.0,25.6,30.01,North,358,10.0,14.0,74,0.00,OVC,,0.00,WeatherDisplay:10.37,2013-03-17 04:30:00,
2013-03-16 23:35:00,33.0,25.6,30.01,North,1,9.0,17.0,74,0.00,OVC,,0.00,WeatherDisplay:10.37,2013-03-17 04:35:00,
2013-03-16 23:40:00,32.9,25.5,30.01,North,8,10.0,15.0,74,0.00,OVC,,0.00,WeatherDisplay:10.37,2013-03-17 04:40:00,
2013-03-16 23:45:00,32.8,25.7,30.01,NNE,14,9.0,15.0,75,0.00,OVC,,0.00,WeatherDisplay:10.37,2013-03-17 04:45:00,
2013-03-16 23:50:00,32.7,25.3,30.00,North,11,12.0,16.0,74,0.00,OVC,,0.00,WeatherDisplay:10.37,2013-03-17 04:50:00,
2013-03-16 23:55:00,32.6,25.3,30.00,North,6,12.0,18.0,74,0.00,OVC,,0.00,WeatherDisplay:10.37,2013-03-17 04:55:00,